Date,TemperatureHighF,TemperatureAvgF,TemperatureLowF,DewpointHighF,DewpointAvgF,DewpointLowF,HumidityHigh,HumidityAvg,HumidityLow,PressureMaxIn,PressureMinIn,WindSpeedMaxMPH,WindSpeedAvgMPH,GustSpeedMaxMPH,PrecipitationSumIn
2012-1-11,46,46,46,23,23,23,41,41,41,29.44,29.44,5,5,8,0.00
2012-1-12,46,46,46,23,23,23,41,41,41,29.44,29.44,5,5,5,0.00
2012-1-13,46,46,46,23,23,23,41,41,41,29.44,29.44,5,5,5,0.00
2012-1-14,46,46,46,23,23,23,41,41,41,29.44,29.44,5,5,5,0.00
2012-1-15,46,46,46,23,23,23,41,41,41,29.44,29.44,5,5,5,0.00
2012-1-16,46,46,46,23,23,23,41,41,41,29.44,29.44,5,5,5,0.00
2012-1-17,46,46,46,23,23,23,41,41,41,29.44,29.44,5,5,5,0.00
2012-1-18,46,39,23,23,7,-20,41,29,10,29.97,29.44,19,6,27,0.00
2012-1-19,42,30,17,13,-16,-24,40,13,10,30.06,29.77,7,2,10,0.00
2012-1-20,39,31,25,-13,-16,-19,13,12,10,30.09,29.74,18,5,24,0.00
2012-1-21,31,27,24,25,7,-19,86,52,12,30.06,29.74,10,4,16,0.00
2012-1-22,35,28,18,17,3,-16,50,36,12,30.30,30.06,8,3,10,0.00
2012-1-23,57,47,34,54,39,17,98,76,48,30.21,29.68,8,2,14,0.29
2012-1-24,58,49,42,51,28,-11,98,57,6,29.94,29.71,11,3,15,0.00
2012-1-25,45,41,37,23,-8,-14,42,13,9,30.12,29.91,14,5,24,0.00
2012-1-26,48,39,34,47,20,-14,98,57,9,30.06,29.68,5,1,8,0.16
2012-1-27,58,52,45,57,44,20,98,79,37,29.68,29.12,17,4,31,0.38
2012-1-28,52,44,35,23,-5,-14,44,15,7,29.88,29.65,14,4,25,0.00
2012-1-29,47,40,33,-10,-12,-15,12,10,8,29.97,29.80,14,4,24,0.00
2012-1-30,42,38,34,-11,-13,-15,11,10,10,30.09,29.80,16,5,24,0.00
2012-1-31,42,40,39,-10,-12,-13,10,10,10,30.06,30.00,4,0,5,0.00
2012-2-6,56,50,42,-8,-10,-12,10,8,6,30.00,29.77,7,2,12,0.00
2012-2-7,51,43,33,-8,-12,-15,15,9,8,30.06,29.74,14,3,18,0.00
2012-2-8,44,36,30,24,-10,-16,69,14,9,30.12,29.85,6,2,9,0.00
2012-2-9,48,38,28,30,1,-15,95,34,8,30.00,29.85,13,3,16,0.00
2012-2-10,53,41,27,20,-6,-18,47,17,7,29.94,29.65,7,2,12,0.00
2012-3-1,42,40,36,40,32,15,90,76,39,29.80,29.41,7,2,9,0.00
2012-3-2,46,41,35,41,7,-14,88,31,9,29.97,29.62,10,3,14,0.12
2012-3-3,59,52,44,52,23,-12,95,54,6,29.62,29.29,17,3,20,0.24
2012-3-4,50,42,36,-9,-12,-14,11,10,8,29.53,29.41,14,4,22,0.00
2012-3-5,46,37,29,-10,-14,-17,12,11,8,30.15,29.53,14,7,27,0.00
2012-3-6,50,36,25,-9,-14,-19,13,11,8,30.48,30.15,15,4,23,0.00
2012-3-7,63,50,40,38,-1,-12,63,17,5,30.39,30.09,8,3,13,0.00
2012-3-8,69,58,50,39,20,-13,63,34,4,30.18,29.68,9,4,17,0.00
2012-3-9,57,45,36,44,-2,-14,91,19,8,30.06,29.68,19,7,29,0.04
2012-3-10,45,37,29,-10,-14,-17,12,11,9,30.36,30.03,17,6,32,0.00
2012-3-11,62,48,33,-7,-10,-15,12,8,5,30.30,30.15,8,2,17,0.00
2012-3-12,76,57,40,22,-9,-20,45,8,2,30.15,29.91,6,2,9,0.00
2012-3-13,58,57,54,52,42,-11,80,64,6,29.97,29.77,4,2,6,0.04
2012-3-14,58,58,58,52,52,52,80,80,80,29.77,29.77,4,4,5,0.00
2012-3-15,58,58,58,52,52,52,80,80,80,29.77,29.77,4,4,5,0.00
2012-3-16,58,58,58,52,52,52,80,80,80,29.77,29.77,4,4,5,0.00
2012-3-17,58,58,58,52,52,52,80,80,80,29.77,29.77,4,4,5,0.00
2012-3-18,58,58,58,52,52,52,80,80,80,29.77,29.77,4,4,5,0.00
2012-3-19,58,58,58,52,52,52,80,80,80,29.77,29.77,4,4,5,0.00
2012-3-20,58,58,58,52,52,52,80,80,80,29.77,29.77,4,4,5,0.00
2012-3-21,58,58,58,52,52,52,80,80,80,29.77,29.77,4,4,5,0.00
2012-3-22,58,58,58,52,52,52,80,80,80,29.77,29.77,4,4,5,0.00
2012-3-23,58,58,58,52,52,52,80,80,80,29.77,29.77,4,4,5,0.00
2012-3-24,58,58,58,52,52,52,80,80,80,29.77,29.77,4,4,5,0.00
2012-3-25,58,58,58,52,52,52,80,80,80,29.77,29.77,4,4,5,0.00
2012-3-26,58,58,58,52,52,52,80,80,80,29.77,29.77,4,4,5,0.00
2012-3-27,58,58,58,52,52,52,80,80,80,29.77,29.77,4,4,5,0.00
2012-3-28,58,58,58,52,52,52,80,80,80,29.77,29.77,4,4,5,0.00
2012-3-29,58,58,58,52,52,52,80,80,80,29.77,29.77,4,4,5,0.00
2012-3-30,58,58,58,52,52,52,80,80,80,29.77,29.77,4,4,5,0.00
2012-3-31,58,58,58,52,52,52,80,80,80,29.77,29.77,4,4,5,0.00
2012-4-1,58,58,58,52,52,52,80,80,80,29.77,29.77,4,4,5,0.00
2012-4-2,58,58,58,52,52,52,80,80,80,29.77,29.77,4,4,5,0.00
2012-4-3,58,58,58,52,52,52,80,80,80,29.77,29.77,4,4,5,0.00
2012-4-4,58,58,58,52,52,52,80,80,80,29.77,29.77,4,4,5,0.00
2012-4-5,58,58,58,52,52,52,80,80,80,29.77,29.77,4,4,5,0.00
2012-4-6,58,58,58,52,52,52,80,80,80,29.77,29.77,4,4,5,0.00
2012-4-7,58,58,58,52,52,52,80,80,80,29.77,29.77,4,4,5,0.00
2012-4-8,58,58,58,52,52,52,80,80,80,29.77,29.77,4,4,5,0.00
2012-4-9,58,58,58,52,52,52,80,80,80,29.77,29.77,4,4,5,0.00
2012-4-10,58,58,58,52,52,52,80,80,80,29.77,29.77,4,4,5,0.00
2012-4-11,58,58,58,52,52,52,80,80,80,29.77,29.77,4,4,5,0.00
2012-4-12,58,58,58,52,52,52,80,80,80,29.77,29.77,4,4,5,0.00
2012-4-13,58,58,58,52,52,52,80,80,80,29.77,29.77,4,4,5,0.00
2012-4-14,58,58,58,52,52,52,80,80,80,29.77,29.77,4,4,5,0.00
2012-4-15,58,58,58,52,52,52,80,80,80,29.77,29.77,4,4,5,0.00
2012-4-16,58,58,58,52,52,52,80,80,80,29.77,29.77,4,4,5,0.00
2012-4-17,58,58,58,52,52,52,80,80,80,29.77,29.77,4,4,5,0.00
2012-4-18,58,58,58,52,52,52,80,80,80,29.77,29.77,4,4,5,0.00
2012-4-19,58,58,58,52,52,52,80,80,80,29.77,29.77,4,4,5,0.00
2012-4-20,58,58,58,52,52,52,80,80,80,29.77,29.77,4,4,5,0.00
2012-4-21,58,58,58,52,52,52,80,80,80,29.77,29.77,4,4,5,0.00
2012-4-22,58,58,58,52,52,52,80,80,80,29.77,29.77,4,4,5,0.00
2012-4-23,58,58,58,52,52,52,80,80,80,29.77,29.77,4,4,5,0.00
2012-4-24,58,58,58,52,52,52,80,80,80,29.77,29.77,4,4,5,0.00
2012-4-25,58,58,58,52,52,52,80,80,80,29.77,29.77,4,4,5,0.00
2012-4-26,58,58,58,52,52,52,80,80,80,29.77,29.77,4,4,5,0.00
2012-4-27,58,58,58,52,52,52,80,80,80,29.77,29.77,4,4,5,0.00
2012-4-28,58,58,58,52,52,52,80,80,80,29.77,29.77,4,4,5,0.00
2012-4-29,58,58,58,52,52,52,80,80,80,29.77,29.77,4,4,5,0.00
2012-4-30,58,58,58,52,52,52,80,80,80,29.77,29.77,4,4,5,0.00
2012-5-1,58,58,58,52,52,52,80,80,80,29.77,29.77,4,4,5,0.00
2012-5-2,58,58,58,52,52,52,80,80,80,29.77,29.77,4,4,5,0.00
2012-5-3,58,58,58,52,52,52,80,80,80,29.77,29.77,4,4,5,0.00
2012-5-4,58,58,58,52,52,52,80,80,80,29.77,29.77,4,4,5,0.00
2012-5-5,58,58,58,52,52,52,80,80,80,29.77,29.77,4,4,5,0.00
2012-5-6,58,58,58,52,52,52,80,80,80,29.77,29.77,4,4,5,0.00
2012-5-7,58,58,58,52,52,52,80,80,80,29.77,29.77,4,4,5,0.00
2012-5-8,58,58,58,52,52,52,80,80,80,29.77,29.77,4,4,5,0.00
2012-5-9,58,58,58,52,52,52,80,80,80,29.77,29.77,4,4,5,0.00
2012-5-10,58,58,58,52,52,52,80,80,80,29.77,29.77,4,4,5,0.00
2012-5-11,58,58,58,52,52,52,80,80,80,29.77,29.77,4,4,5,0.00
2012-5-12,58,58,58,52,52,52,80,80,80,29.77,29.77,4,4,5,0.00
2012-5-13,58,58,58,52,52,52,80,80,80,29.77,29.77,4,4,5,0.00
2012-5-14,58,58,58,52,52,52,80,80,80,29.77,29.77,4,4,5,0.00
2012-5-15,58,58,58,52,52,52,80,80,80,29.77,29.77,4,4,5,0.00
2012-5-16,58,58,58,52,52,52,80,80,80,29.77,29.77,4,4,5,0.00
2012-5-17,58,58,58,52,52,52,80,80,80,29.77,29.77,4,4,5,0.00
2012-5-18,58,58,58,52,52,52,80,80,80,29.77,29.77,4,4,5,0.00
2012-5-19,58,58,58,52,52,52,80,80,80,29.77,29.77,4,4,5,0.00
2012-5-20,58,58,58,52,52,52,80,80,80,29.77,29.77,4,4,5,0.00
2012-5-21,58,58,58,52,52,52,80,80,80,29.77,29.77,4,4,5,0.00
2012-5-22,58,58,58,52,52,52,80,80,80,29.77,29.77,4,4,5,0.00
2012-5-23,58,58,58,52,52,52,80,80,80,29.77,29.77,4,4,5,0.00
2012-5-24,58,58,58,52,52,52,80,80,80,29.77,29.77,4,4,5,0.00
2012-5-25,58,58,58,52,52,52,80,80,80,29.77,29.77,4,4,5,0.00
2012-5-26,58,58,58,52,52,52,80,80,80,29.77,29.77,4,4,5,0.00
2012-5-27,58,58,58,52,52,52,80,80,80,29.77,29.77,4,4,5,0.00
2012-5-28,58,58,58,52,52,52,80,80,80,29.77,29.77,4,4,5,0.00
2012-5-29,58,58,58,52,52,52,80,80,80,29.77,29.77,4,4,5,0.00
2012-5-30,58,58,58,52,52,52,80,80,80,29.77,29.77,4,4,5,0.00
2012-5-31,58,58,58,52,52,52,80,80,80,29.77,29.77,4,4,5,0.00
2012-6-1,58,58,58,52,52,52,80,80,80,29.77,29.77,4,4,5,0.00
2012-6-2,58,58,58,52,52,52,80,80,80,29.77,29.77,4,4,5,0.00
2012-6-3,58,58,58,52,52,52,80,80,80,29.77,29.77,4,4,5,0.00
2012-6-4,58,58,58,52,52,52,80,80,80,29.77,29.77,4,4,5,0.00
2012-6-5,58,58,58,52,52,52,80,80,80,29.77,29.77,4,4,5,0.00
2012-6-6,58,58,58,52,52,52,80,80,80,29.77,29.77,4,4,5,0.00
2012-6-7,58,58,58,52,52,52,80,80,80,29.77,29.77,4,4,5,0.00
2012-6-8,58,58,58,52,52,52,80,80,80,29.77,29.77,4,4,5,0.00
2012-6-9,58,58,58,52,52,52,80,80,80,29.77,29.77,4,4,5,0.00
2012-6-10,58,58,58,52,52,52,80,80,80,29.77,29.77,4,4,5,0.00
2012-6-11,58,58,58,52,52,52,80,80,80,29.77,29.77,4,4,5,0.00
2012-6-12,58,58,58,52,52,52,80,80,80,29.77,29.77,4,4,5,0.00
2012-6-13,58,58,58,52,52,52,80,80,80,29.77,29.77,4,4,5,0.00
2012-6-14,58,58,58,52,52,52,80,80,80,29.77,29.77,4,4,5,0.00
2012-6-15,58,58,58,52,52,52,80,80,80,29.77,29.77,4,4,5,0.00
2012-6-16,58,58,58,52,52,52,80,80,80,29.77,29.77,4,4,5,0.00
2012-6-17,58,58,58,52,52,52,80,80,80,29.77,29.77,4,4,5,0.00
2012-6-18,58,58,58,52,52,52,80,80,80,29.77,29.77,4,4,5,0.00
2012-6-19,58,58,58,52,52,52,80,80,80,29.77,29.77,4,4,5,0.00
2012-6-20,58,58,58,52,52,52,80,80,80,29.77,29.77,4,4,5,0.00
2012-6-21,58,58,58,52,52,52,80,80,80,29.77,29.77,4,4,5,0.00
2012-6-22,58,58,58,52,52,52,80,80,80,29.77,29.77,4,4,5,0.00
2012-6-23,58,58,58,52,52,52,80,80,80,29.77,29.77,4,4,5,0.00
2012-6-24,58,58,58,52,52,52,80,80,80,29.77,29.77,4,4,5,0.00
2012-6-25,58,58,58,52,52,52,80,80,80,29.77,29.77,4,4,5,0.00
2012-6-26,58,58,58,52,52,52,80,80,80,29.77,29.77,4,4,5,0.00
2012-6-27,58,58,58,52,52,52,80,80,80,29.77,29.77,4,4,5,0.00
2012-6-28,58,58,58,52,52,52,80,80,80,29.77,29.77,4,4,5,0.00
2012-6-29,58,58,58,52,52,52,80,80,80,29.77,29.77,4,4,5,0.00
2012-6-30,58,58,58,52,52,52,80,80,80,29.77,29.77,4,4,5,0.00
2012-7-1,58,58,58,52,52,52,80,80,80,29.77,29.77,4,4,5,0.00
2012-7-2,58,58,58,52,52,52,80,80,80,29.77,29.77,4,4,5,0.00
2012-7-3,58,58,58,52,52,52,80,80,80,29.77,29.77,4,4,5,0.00
2012-7-4,58,58,58,52,52,52,80,80,80,29.77,29.77,4,4,5,0.00
2012-7-5,58,58,58,52,52,52,80,80,80,29.77,29.77,4,4,5,0.00
2012-7-6,58,58,58,52,52,52,80,80,80,29.77,29.77,4,4,5,0.00
2012-7-7,58,58,58,52,52,52,80,80,80,29.77,29.77,4,4,5,0.00
2012-7-8,58,58,58,52,52,52,80,80,80,29.77,29.77,4,4,5,0.00
2012-7-9,58,58,58,52,52,52,80,80,80,29.77,29.77,4,4,5,0.00
2012-7-10,58,58,58,52,52,52,80,80,80,29.77,29.77,4,4,5,0.00
2012-7-11,58,58,58,52,52,52,80,80,80,29.77,29.77,4,4,5,0.00
2012-7-12,58,58,58,52,52,52,80,80,80,29.77,29.77,4,4,5,0.00
2012-7-13,58,58,58,52,52,52,80,80,80,29.77,29.77,4,4,5,0.00
2012-7-14,58,58,58,52,52,52,80,80,80,29.77,29.77,4,4,5,0.00
2012-7-15,58,58,58,52,52,52,80,80,80,29.77,29.77,4,4,5,0.00
2012-7-16,58,58,58,52,52,52,80,80,80,29.77,29.77,4,4,5,0.00
2012-7-17,58,58,58,52,52,52,80,80,80,29.77,29.77,4,4,5,0.00
2012-7-18,58,58,58,52,52,52,80,80,80,29.77,29.77,4,4,5,0.00
2012-7-19,58,58,58,52,52,52,80,80,80,29.77,29.77,4,4,5,0.00